Home > Weather > Lafayette > Past weeks

Flag for USA Weather for the Past 2 Weeks in Lafayette, Indiana, USA

Now
47 °F

Fog.


Feels Like: 46 °F
Forecast: 46 / 60 °F
Wind: 3 mph from West

Location: Purdue University Airport

Current Time: Apr 29, 2016 at 6:35:13 AM

Latest Report: Apr 29, 2016 at 5:54 AM


Visibility: 1 mi

Pressure: 30.02 "Hg

Humidity: 97%

Dew Point: 46 °F

Location of LafayetteLocation

Historic Weather in Lafayette — Graph

°F

Lafayette Temperature Yesterday

Maximum temperature yesterday: 63 °F (at 5:54 PM)
Minimum temperature yesterday: 46 °F (at 2:54 AM)
Average temperature yesterday: 54 °F

High & Low Weather Summary for the Past Weeks

 TemperatureHumidityPressure
High81 °F (Apr 18, 1:54 PM)100% (Apr 21, 7:54 AM)30.41 "Hg (Apr 21, 7:54 AM)
Low35 °F (Apr 14, 6:54 AM)22% (Apr 18, 3:54 PM)29.68 "Hg (Apr 25, 11:54 PM)
Average59 °F66%30.03 "Hg
* Reported Apr 14 4:54 AM — Apr 29 4:54 AM, Lafayette, Weather by CustomWeather, © 2016

Note: Actual official high and low records may vary slightly from our data, if they occured in-between our weather recording intervals... More about our weather records

Advertising

Lafayette Weather History for the Previous 24 Hours

Scroll right to see more
 ConditionsComfort  
Time TempWeatherWind HumidityBarometerVisibility
4:54 AM
Fri, Apr 29
48 °FFog.3 mph96%30.00 "Hg2 mi
3:54 AM52 °FFog.No wind89%29.97 "Hg4 mi
2:54 AM54 °FFog.8 mph90%29.98 "Hg5 mi
1:54 AM55 °FOvercast.8 mph87%29.98 "Hg7 mi
12:54 AM55 °FFog.3 mph90%29.97 "Hg6 mi
11:54 PM
Thu, Apr 28
55 °FOvercast.8 mph90%29.97 "Hg7 mi
10:54 PM56 °FOvercast.7 mph87%29.96 "Hg8 mi
9:54 PM57 °FMostly cloudy.7 mph87%29.94 "Hg8 mi
8:54 PM58 °FMostly cloudy.5 mph84%29.91 "Hg6 mi
7:54 PM59 °FMore clouds than sun.7 mph81%29.90 "Hg7 mi
6:54 PM61 °FOvercast.9 mph75%29.89 "Hg9 mi
5:54 PM63 °FPartly sunny.7 mph73%29.88 "Hg10 mi
4:54 PM61 °FPartly sunny.7 mph78%29.87 "Hg9 mi
3:54 PM61 °FOvercast.7 mph78%29.85 "Hg9 mi
2:54 PM60 °FPartly sunny.6 mph80%29.85 "Hg9 mi
1:54 PM58 °FOvercast.8 mph81%29.84 "Hg8 mi
12:54 PM57 °FMostly cloudy.7 mph83%29.85 "Hg8 mi
11:54 AM54 °FFog.5 mph90%29.83 "Hg6 mi
10:54 AM52 °FFog.7 mph89%29.82 "Hg5 mi
9:54 AM50 °FLow clouds.8 mph89%29.82 "Hg8 mi
8:54 AM49 °FLow clouds.12 mph93%29.79 "Hg9 mi
7:54 AM47 °FFog.8 mph97%29.78 "Hg6 mi
6:54 AM46 °FLow clouds.7 mph96%29.77 "Hg8 mi
Weather by CustomWeather, © 2016

See weather overviewHow to use our weather pages